Location: Unspecified
(0.0000°N, 0.0000°E)
Time: 07:19:29
(UTC+00:00)

Envisat - Pass Details

Date: 22 September 2021
Orbit: 764 x 766 km, 98.2° (Epoch: 17 September)

Event Time Altitude Azimuth Distance (km) Brightness Sun altitude
Rises 04:21:11 0° 24° (NNE) 3,214 6.5 -22.9°
Reaches altitude 10° 04:23:34 10° 30° (NNE) 2,292 5.8 -22.3°
Maximum altitude 04:28:22 45° 102° (ESE) 1,038 4.1 -21.1°
Drops below altitude 10° 04:33:11 10° 174° (S) 2,302 5.5 -19.9°
Sets 04:35:35 0° 180° (S) 3,230 6.2 -19.3°
